FDX6075 RJBB-ZGGG

Flight info

Callsign FDX6075
Flight time 3h 23m
Altitude 34000
Route MAIKO OSRIX SHION HABAR Y60 ISAKY Y592 POTET A593 LAMEN/K0904F340 A593 AKARA/K0906S1035 A593 PUD A599 PLT W19 OLPAB OLPAB9
Aircraft B77L/H-SDE1E2E3FGHIJ2J3J4J5M1RWXY/LB1D1

Departure

Time 2026-04-27 22:06
Airport Kansai International Airport (RJBB)

Arrival

Time 2026-04-28 01:29
Airport Guangzhou Baiyun International Airport (ZGGG)
Time Latitude Longitude Altitude Speed Heading
2026-04-27 21:37 34.43440 135.22510 33 ft 0 kts 231°
2026-04-27 21:52 34.43443 135.22513 33 ft 3 kts 231°
2026-04-27 21:52 34.43460 135.22538 32 ft 4 kts 230°
2026-04-27 21:53 34.43473 135.22564 33 ft 4 kts 264°
2026-04-27 21:53 34.43469 135.22593 31 ft 4 kts 309°
2026-04-27 21:53 34.43461 135.22603 32 ft 1 kts 321°
2026-04-27 21:58 34.43469 135.22596 33 ft 3 kts 321°
2026-04-27 21:58 34.43495 135.22573 33 ft 6 kts 331°
2026-04-27 21:58 34.43543 135.22573 33 ft 8 kts 20°
2026-04-27 21:58 34.43609 135.22578 33 ft 11 kts 342°
2026-04-27 21:59 34.43675 135.22517 33 ft 13 kts 320°
2026-04-27 21:59 34.43750 135.22445 32 ft 14 kts 322°
2026-04-27 21:59 34.43800 135.22368 33 ft 10 kts 255°
2026-04-27 21:59 34.43755 135.22301 31 ft 10 kts 229°
2026-04-27 22:00 34.43709 135.22234 33 ft 10 kts 231°
2026-04-27 22:00 34.43663 135.22167 32 ft 10 kts 230°
2026-04-27 22:00 34.43615 135.22102 33 ft 10 kts 231°
2026-04-27 22:00 34.43572 135.22033 33 ft 10 kts 234°
2026-04-27 22:01 34.43527 135.21965 33 ft 10 kts 230°
2026-04-27 22:01 34.43481 135.21898 31 ft 10 kts 231°
2026-04-27 22:01 34.43437 135.21830 33 ft 10 kts 232°
2026-04-27 22:01 34.43393 135.21762 32 ft 10 kts 232°
2026-04-27 22:02 34.43348 135.21695 33 ft 10 kts 229°
2026-04-27 22:02 34.43303 135.21628 31 ft 10 kts 231°
2026-04-27 22:02 34.43256 135.21561 33 ft 10 kts 230°
2026-04-27 22:02 34.43211 135.21494 33 ft 10 kts 234°
2026-04-27 22:03 34.43166 135.21425 33 ft 11 kts 230°
2026-04-27 22:03 34.43102 135.21333 33 ft 17 kts 230°
2026-04-27 22:03 34.43028 135.21221 33 ft 17 kts 231°
2026-04-27 22:03 34.42953 135.21109 33 ft 17 kts 231°
2026-04-27 22:04 34.42878 135.20999 33 ft 17 kts 230°
2026-04-27 22:04 34.42802 135.20888 33 ft 17 kts 230°
2026-04-27 22:04 34.42754 135.20765 33 ft 14 kts 276°
2026-04-27 22:04 34.42812 135.20689 29 ft 14 kts 322°
2026-04-27 22:05 34.42896 135.20664 29 ft 14 kts 39°
2026-04-27 22:05 34.42995 135.20823 31 ft 48 kts 51°
2026-04-27 22:05 34.43353 135.21357 37 ft 113 kts 51°
2026-04-27 22:05 34.43969 135.22276 35 ft 165 kts 51°
2026-04-27 22:06 34.44728 135.23439 323 ft 179 kts 53°
2026-04-27 22:06 34.45511 135.24591 879 ft 178 kts 39°
2026-04-27 22:06 34.46679 135.25043 1226 ft 185 kts 349°
2026-04-27 22:06 34.47783 135.24290 1677 ft 185 kts 320°
2026-04-27 22:07 34.48830 135.23245 1922 ft 206 kts 322°
2026-04-27 22:07 34.50021 135.22111 2112 ft 231 kts 322°
2026-04-27 22:07 34.51357 135.20849 2370 ft 253 kts 322°
2026-04-27 22:07 34.52777 135.19512 2987 ft 262 kts 322°
2026-04-27 22:08 34.54242 135.18138 3650 ft 270 kts 321°
2026-04-27 22:08 34.55743 135.16741 4430 ft 272 kts 321°
2026-04-27 22:08 34.57243 135.15351 5273 ft 272 kts 320°
2026-04-27 22:08 34.58755 135.13950 6047 ft 274 kts 320°
2026-04-27 22:09 34.60177 135.12454 6635 ft 274 kts 304°
2026-04-27 22:09 34.60897 135.10349 7220 ft 272 kts 274°
2026-04-27 22:09 34.60957 135.08069 7874 ft 272 kts 269°
2026-04-27 22:09 34.60996 135.05758 8589 ft 274 kts 270°
2026-04-27 22:10 34.61036 135.03439 9286 ft 277 kts 270°
2026-04-27 22:10 34.61065 135.01854 9732 ft 279 kts 270°
2026-04-27 22:10 34.61138 134.98738 10650 ft 284 kts 273°
2026-04-27 22:10 34.61285 134.96250 10883 ft 306 kts 274°
2026-04-27 22:11 34.61471 134.93576 11070 ft 330 kts 274°
2026-04-27 22:11 34.61670 134.90716 11431 ft 347 kts 274°
2026-04-27 22:11 34.61867 134.87770 12199 ft 352 kts 274°
2026-04-27 22:11 34.62057 134.84808 13194 ft 352 kts 274°
2026-04-27 22:12 34.62237 134.81843 14065 ft 352 kts 272°
2026-04-27 22:12 34.62108 134.78852 14805 ft 358 kts 261°
2026-04-27 22:12 34.61579 134.75926 15621 ft 360 kts 255°
2026-04-27 22:12 34.60693 134.73026 16439 ft 364 kts 247°
2026-04-27 22:13 34.59602 134.70286 17198 ft 366 kts 246°
2026-04-27 22:13 34.58472 134.67494 17937 ft 370 kts 246°
2026-04-27 22:13 34.57335 134.64682 18667 ft 372 kts 246°
2026-04-27 22:13 34.56196 134.61851 19378 ft 374 kts 246°
2026-04-27 22:14 34.55056 134.59001 20082 ft 376 kts 247°
2026-04-27 22:14 34.53910 134.56131 20777 ft 378 kts 247°
2026-04-27 22:14 34.52762 134.53252 21406 ft 380 kts 247°
2026-04-27 22:14 34.51608 134.50352 22025 ft 383 kts 247°
2026-04-27 22:15 34.50444 134.47431 22649 ft 385 kts 247°
2026-04-27 22:15 34.49288 134.44529 23241 ft 387 kts 248°
2026-04-27 22:15 34.48111 134.41581 23789 ft 390 kts 248°
2026-04-27 22:15 34.46926 134.38610 24350 ft 393 kts 248°
2026-04-27 22:16 34.45731 134.35620 24897 ft 395 kts 248°
2026-04-27 22:16 34.44530 134.32613 25429 ft 396 kts 248°
2026-04-27 22:16 34.43471 134.29524 25918 ft 397 kts 253°
2026-04-27 22:16 34.42620 134.26338 26423 ft 398 kts 256°
2026-04-27 22:17 34.41952 134.23076 26884 ft 401 kts 260°
2026-04-27 22:17 34.41443 134.19747 27337 ft 403 kts 260°
2026-04-27 22:17 34.40935 134.16398 27805 ft 405 kts 260°
2026-04-27 22:17 34.40420 134.13028 28252 ft 407 kts 260°
2026-04-27 22:18 34.39907 134.09688 28662 ft 409 kts 260°
2026-04-27 22:18 34.39381 134.06292 29063 ft 411 kts 260°
2026-04-27 22:18 34.38850 134.02869 29436 ft 414 kts 259°
2026-04-27 22:18 34.38315 133.99433 29831 ft 415 kts 259°
2026-04-27 22:19 34.37774 133.95985 30196 ft 417 kts 259°
2026-04-27 22:19 34.37232 133.92544 30637 ft 414 kts 259°
2026-04-27 22:19 34.36693 133.89119 31034 ft 413 kts 259°
2026-04-27 22:19 34.36153 133.85689 31343 ft 415 kts 259°
2026-04-27 22:20 34.35618 133.82299 31714 ft 414 kts 259°
2026-04-27 22:20 34.35078 133.78888 32176 ft 411 kts 259°
2026-04-27 22:20 34.34542 133.75502 32639 ft 408 kts 259°
2026-04-27 22:20 34.34007 133.72130 33004 ft 407 kts 259°
2026-04-27 22:21 34.33474 133.68766 33336 ft 406 kts 260°
2026-04-27 22:21 34.32940 133.65410 33693 ft 405 kts 260°
2026-04-27 22:21 34.32406 133.62063 33894 ft 407 kts 259°
2026-04-27 22:22 34.30944 133.55421 33977 ft 407 kts 252°
2026-04-27 22:22 34.29088 133.49044 33973 ft 403 kts 253°
2026-04-27 22:23 34.27259 133.42645 33991 ft 401 kts 253°
2026-04-27 22:23 34.25438 133.36268 34000 ft 400 kts 253°
2026-04-27 22:24 34.23615 133.29908 34002 ft 400 kts 253°
2026-04-27 22:24 34.21788 133.23548 34003 ft 401 kts 253°
2026-04-27 22:25 34.19965 133.17214 34002 ft 402 kts 253°
2026-04-27 22:25 34.18124 133.10839 34000 ft 402 kts 253°
2026-04-27 22:26 34.16276 133.04448 34004 ft 403 kts 253°
2026-04-27 22:26 34.14425 132.98044 33999 ft 404 kts 253°
2026-04-27 22:27 34.12579 132.91683 34003 ft 404 kts 253°
2026-04-27 22:27 34.10716 132.85282 34001 ft 404 kts 253°
2026-04-27 22:28 34.08847 132.78869 34000 ft 405 kts 253°
2026-04-27 22:28 34.06976 132.72464 33996 ft 405 kts 254°
2026-04-27 22:29 34.05099 132.66056 34010 ft 405 kts 253°
2026-04-27 22:29 34.03233 132.59695 34009 ft 405 kts 253°
2026-04-27 22:30 34.01351 132.53289 34010 ft 406 kts 254°
2026-04-27 22:30 33.99460 132.46866 34012 ft 407 kts 253°
2026-04-27 22:31 33.97554 132.40412 34012 ft 409 kts 253°
2026-04-27 22:31 33.95960 132.35027 34016 ft 411 kts 253°
2026-04-27 22:32 33.93717 132.27460 34016 ft 413 kts 253°
2026-04-27 22:32 33.92105 132.22038 34015 ft 413 kts 253°
2026-04-27 22:33 33.90476 132.15425 34006 ft 411 kts 258°
2026-04-27 22:33 33.88791 132.07706 34017 ft 409 kts 258°
2026-04-27 22:34 33.87569 132.02162 34013 ft 408 kts 258°
2026-04-27 22:34 33.86117 131.95600 34009 ft 408 kts 258°
2026-04-27 22:35 33.84656 131.89012 34007 ft 407 kts 258°
2026-04-27 22:35 33.83193 131.82437 34008 ft 407 kts 257°
2026-04-27 22:36 33.81725 131.75856 34010 ft 407 kts 257°
2026-04-27 22:36 33.80252 131.69265 34010 ft 408 kts 257°
2026-04-27 22:37 33.78772 131.62664 34005 ft 409 kts 257°
2026-04-27 22:37 33.77294 131.56092 33999 ft 410 kts 257°
2026-04-27 22:38 33.75801 131.49469 34003 ft 411 kts 257°
2026-04-27 22:38 33.74299 131.42830 34001 ft 412 kts 257°
2026-04-27 22:39 33.72792 131.36185 33998 ft 413 kts 257°
2026-04-27 22:39 33.71279 131.29527 34000 ft 414 kts 257°
2026-04-27 22:40 33.69766 131.22891 33998 ft 414 kts 257°
2026-04-27 22:40 33.68239 131.16209 33997 ft 415 kts 257°
2026-04-27 22:41 33.66709 131.09521 34001 ft 415 kts 257°
2026-04-27 22:41 33.65170 131.02830 33999 ft 416 kts 257°
2026-04-27 22:42 33.63629 130.96143 34004 ft 416 kts 257°
2026-04-27 22:42 33.62082 130.89446 33997 ft 416 kts 257°
2026-04-27 22:43 33.60541 130.82789 34000 ft 416 kts 256°
2026-04-27 22:43 33.58984 130.76095 34007 ft 416 kts 256°
2026-04-27 22:44 33.57429 130.69410 34004 ft 416 kts 256°
2026-04-27 22:44 33.55880 130.62773 34014 ft 415 kts 256°
2026-04-27 22:45 33.54317 130.56101 34012 ft 416 kts 256°
2026-04-27 22:45 33.52753 130.49424 34013 ft 416 kts 256°
2026-04-27 22:46 33.50995 130.42814 34005 ft 417 kts 251°
2026-04-27 22:46 33.48552 130.36489 34010 ft 418 kts 248°
2026-04-27 22:47 33.46086 130.30192 34004 ft 417 kts 249°
2026-04-27 22:47 33.43634 130.23892 34006 ft 417 kts 248°
2026-04-27 22:48 33.41181 130.17602 34026 ft 417 kts 248°
2026-04-27 22:48 33.38739 130.11353 34009 ft 417 kts 248°
2026-04-27 22:49 33.36262 130.05028 34025 ft 417 kts 248°
2026-04-27 22:49 33.33813 129.98785 34028 ft 417 kts 248°
2026-04-27 22:50 33.31344 129.92506 34021 ft 417 kts 248°
2026-04-27 22:50 33.28863 129.86208 34015 ft 418 kts 249°
2026-04-27 22:51 33.26381 129.79914 34009 ft 419 kts 249°
2026-04-27 22:51 33.23893 129.73616 34014 ft 420 kts 248°
2026-04-27 22:52 33.21390 129.67292 34013 ft 422 kts 248°
2026-04-27 22:52 33.19059 129.60876 34020 ft 421 kts 251°
2026-04-27 22:53 33.16875 129.54441 34019 ft 421 kts 251°
2026-04-27 22:53 33.14668 129.47954 34013 ft 422 kts 251°
2026-04-27 22:54 33.12447 129.41462 34023 ft 423 kts 251°
2026-04-27 22:54 33.10216 129.34969 34019 ft 423 kts 251°
2026-04-27 22:55 33.07956 129.28477 34011 ft 423 kts 251°
2026-04-27 22:55 33.05683 129.22004 34011 ft 423 kts 251°
2026-04-27 22:56 33.03400 129.15527 34010 ft 424 kts 250°
2026-04-27 22:56 33.00939 129.09135 34012 ft 425 kts 249°
2026-04-27 22:57 32.98412 129.02767 34007 ft 425 kts 249°
2026-04-27 22:57 32.95912 128.96429 34010 ft 424 kts 249°
2026-04-27 22:58 32.93413 128.90060 34006 ft 424 kts 249°
2026-04-27 22:58 32.90915 128.83683 34013 ft 424 kts 249°
2026-04-27 22:59 32.88419 128.77315 34007 ft 425 kts 249°
2026-04-27 22:59 32.85917 128.70945 34010 ft 425 kts 249°
2026-04-27 23:00 32.82170 128.61435 34011 ft 425 kts 249°
2026-04-27 23:00 32.79655 128.55063 34010 ft 426 kts 249°
2026-04-27 23:01 32.77132 128.48676 34008 ft 427 kts 249°
2026-04-27 23:01 32.74598 128.42282 34010 ft 427 kts 249°
2026-04-27 23:02 32.72077 128.35930 34009 ft 428 kts 249°
2026-04-27 23:02 32.69525 128.29521 34009 ft 429 kts 249°
2026-04-27 23:03 32.66968 128.23105 34009 ft 429 kts 249°
2026-04-27 23:03 32.64426 128.16736 34008 ft 430 kts 249°
2026-04-27 23:04 32.61858 128.10315 34011 ft 431 kts 249°
2026-04-27 23:04 32.59282 128.03885 34015 ft 431 kts 249°
2026-04-27 23:05 32.56700 127.97449 34009 ft 432 kts 249°
2026-04-27 23:05 32.54111 127.91014 34006 ft 432 kts 249°
2026-04-27 23:06 32.51520 127.84586 34009 ft 432 kts 249°
2026-04-27 23:06 32.48924 127.78152 34017 ft 432 kts 249°
2026-04-27 23:07 32.46344 127.71772 34020 ft 432 kts 249°
2026-04-27 23:07 32.43749 127.65362 34023 ft 432 kts 249°
2026-04-27 23:08 32.41149 127.58956 34020 ft 431 kts 249°
2026-04-27 23:08 32.38545 127.52555 34026 ft 431 kts 249°
2026-04-27 23:09 32.35936 127.46154 34033 ft 431 kts 249°
2026-04-27 23:09 32.33327 127.39762 34034 ft 431 kts 248°
2026-04-27 23:10 32.30718 127.33379 34030 ft 431 kts 248°
2026-04-27 23:10 32.28124 127.27042 34042 ft 430 kts 248°
2026-04-27 23:11 32.25508 127.20666 34039 ft 430 kts 248°
2026-04-27 23:11 32.22891 127.14299 34042 ft 430 kts 248°
2026-04-27 23:12 32.20291 127.07986 34046 ft 429 kts 248°
2026-04-27 23:12 32.17675 127.01641 34042 ft 429 kts 248°
2026-04-27 23:13 32.15059 126.95311 34030 ft 429 kts 248°
2026-04-27 23:13 32.12441 126.88989 34044 ft 429 kts 248°
2026-04-27 23:14 32.09836 126.82707 34046 ft 428 kts 248°
2026-04-27 23:14 32.07211 126.76388 34041 ft 429 kts 248°
2026-04-27 23:15 32.04582 126.70070 34032 ft 429 kts 248°
2026-04-27 23:15 32.01947 126.63747 34031 ft 430 kts 248°
2026-04-27 23:16 31.99306 126.57425 34046 ft 430 kts 248°
2026-04-27 23:16 31.96657 126.51092 34050 ft 432 kts 247°
2026-04-27 23:17 31.93988 126.44724 34060 ft 434 kts 247°
2026-04-27 23:17 31.91310 126.38343 34059 ft 435 kts 247°
2026-04-27 23:18 31.88637 126.31991 34065 ft 436 kts 247°
2026-04-27 23:18 31.85943 126.25599 34065 ft 436 kts 247°
2026-04-27 23:19 31.83702 126.20286 34066 ft 435 kts 247°
2026-04-27 23:19 31.81006 126.13909 34064 ft 435 kts 247°
2026-04-27 23:20 31.78303 126.07527 34065 ft 435 kts 247°
2026-04-27 23:20 31.75608 126.01173 34065 ft 434 kts 247°
2026-04-27 23:21 31.72910 125.94825 34061 ft 434 kts 247°
2026-04-27 23:21 31.70209 125.88481 34056 ft 433 kts 247°
2026-04-27 23:22 31.67525 125.82185 34056 ft 433 kts 247°
2026-04-27 23:22 31.64825 125.75867 34057 ft 433 kts 247°
2026-04-27 23:23 31.62121 125.69548 34057 ft 433 kts 247°
2026-04-27 23:23 31.59412 125.63230 34065 ft 433 kts 247°
2026-04-27 23:24 31.56718 125.56953 34066 ft 434 kts 247°
2026-04-27 23:24 31.53992 125.50615 34066 ft 434 kts 247°
2026-04-27 23:25 31.51263 125.44285 34066 ft 435 kts 247°
2026-04-27 23:25 31.48531 125.37950 34063 ft 436 kts 247°
2026-04-27 23:26 31.45788 125.31603 34066 ft 436 kts 247°
2026-04-27 23:26 31.43051 125.25282 34065 ft 437 kts 246°
2026-04-27 23:27 31.40291 125.18926 34066 ft 438 kts 246°
2026-04-27 23:27 31.37528 125.12571 34066 ft 438 kts 246°
2026-04-27 23:28 31.34763 125.06219 34065 ft 438 kts 246°
2026-04-27 23:28 31.32011 124.99909 34066 ft 437 kts 246°
2026-04-27 23:29 31.29239 124.93565 34065 ft 437 kts 246°
2026-04-27 23:29 31.26470 124.87237 34066 ft 437 kts 246°
2026-04-27 23:30 31.23698 124.80912 34065 ft 437 kts 246°
2026-04-27 23:30 31.20918 124.74579 34064 ft 437 kts 246°
2026-04-27 23:31 31.18138 124.68256 34065 ft 437 kts 246°
2026-04-27 23:31 31.15371 124.61976 34066 ft 437 kts 246°
2026-04-27 23:32 31.12581 124.55653 34063 ft 438 kts 246°
2026-04-27 23:32 31.09788 124.49338 34067 ft 438 kts 246°
2026-04-27 23:33 31.06989 124.43018 34067 ft 438 kts 246°
2026-04-27 23:33 31.04188 124.36703 34064 ft 439 kts 246°
2026-04-27 23:34 31.01378 124.30379 34062 ft 439 kts 246°
2026-04-27 23:34 30.98560 124.24045 34053 ft 440 kts 246°
2026-04-27 23:35 30.95735 124.17710 34055 ft 441 kts 246°
2026-04-27 23:35 30.92914 124.11391 34058 ft 442 kts 246°
2026-04-27 23:36 30.90063 124.05017 34053 ft 443 kts 246°
2026-04-27 23:36 30.87232 123.98700 34055 ft 443 kts 246°
2026-04-27 23:37 30.84375 123.92333 34055 ft 444 kts 246°
2026-04-27 23:37 30.81514 123.85965 34058 ft 444 kts 246°
2026-04-27 23:38 30.78641 123.79592 34057 ft 445 kts 246°
2026-04-27 23:38 30.75760 123.73209 34055 ft 445 kts 246°
2026-04-27 23:39 30.72893 123.66862 34058 ft 446 kts 246°
2026-04-27 23:39 30.70001 123.60472 34055 ft 446 kts 246°
2026-04-27 23:40 30.67107 123.54088 34057 ft 446 kts 245°
2026-04-27 23:40 30.64209 123.47708 34057 ft 447 kts 245°
2026-04-27 23:41 30.61305 123.41324 34056 ft 447 kts 245°
2026-04-27 23:41 30.58395 123.34941 34057 ft 447 kts 245°
2026-04-27 23:42 30.55503 123.28602 34058 ft 446 kts 245°
2026-04-27 23:42 30.52590 123.22231 34056 ft 446 kts 245°
2026-04-27 23:43 30.49679 123.15873 34057 ft 446 kts 245°
2026-04-27 23:43 30.46766 123.09527 34055 ft 445 kts 245°
2026-04-27 23:44 30.43857 123.03197 34058 ft 445 kts 245°
2026-04-27 23:44 30.40942 122.96863 34055 ft 445 kts 245°
2026-04-27 23:45 30.38044 122.90573 34058 ft 445 kts 245°
2026-04-27 23:45 30.35123 122.84252 34056 ft 445 kts 245°
2026-04-27 23:46 30.32202 122.77932 34055 ft 445 kts 245°
2026-04-27 23:46 30.29278 122.71617 34056 ft 445 kts 245°
2026-04-27 23:47 30.26352 122.65312 34057 ft 444 kts 245°
2026-04-27 23:47 30.23425 122.59016 34056 ft 444 kts 245°
2026-04-27 23:48 30.20494 122.52720 34057 ft 444 kts 245°
2026-04-27 23:48 30.17584 122.46477 34056 ft 444 kts 245°
2026-04-27 23:49 30.14653 122.40197 34056 ft 444 kts 245°
2026-04-27 23:49 30.11715 122.33918 34057 ft 444 kts 245°
2026-04-27 23:50 30.08767 122.27629 34055 ft 445 kts 245°
2026-04-27 23:50 30.05816 122.21341 34061 ft 445 kts 245°
2026-04-27 23:51 30.02861 122.15051 34052 ft 446 kts 245°
2026-04-27 23:51 29.99917 122.08799 34053 ft 446 kts 244°
2026-04-27 23:52 29.96952 122.02518 34055 ft 445 kts 244°
2026-04-27 23:52 29.93993 121.96251 34056 ft 445 kts 244°
2026-04-27 23:53 29.91029 121.89981 34065 ft 445 kts 244°
2026-04-27 23:53 29.88060 121.83714 34063 ft 445 kts 244°
2026-04-27 23:54 29.85084 121.77441 34058 ft 446 kts 244°
2026-04-27 23:54 29.82101 121.71167 34057 ft 446 kts 244°
2026-04-27 23:55 29.79114 121.64893 34057 ft 446 kts 244°
2026-04-27 23:55 29.76157 121.58693 34055 ft 446 kts 244°
2026-04-27 23:56 29.73155 121.52409 34055 ft 447 kts 244°
2026-04-27 23:56 29.70153 121.46130 34057 ft 447 kts 244°
2026-04-27 23:57 29.67150 121.39865 34055 ft 447 kts 244°
2026-04-27 23:57 29.64135 121.33585 34062 ft 448 kts 244°
2026-04-27 23:58 29.61124 121.27313 34040 ft 448 kts 244°
2026-04-27 23:58 29.58108 121.21044 34053 ft 448 kts 243°
2026-04-27 23:59 29.55082 121.14770 34054 ft 449 kts 243°
2026-04-27 23:59 29.52070 121.08537 34065 ft 448 kts 243°
2026-04-28 00:00 29.49035 121.02260 34064 ft 450 kts 243°
2026-04-28 00:00 29.45991 120.95980 34068 ft 450 kts 243°
2026-04-28 00:01 29.42943 120.89698 34071 ft 451 kts 243°
2026-04-28 00:01 29.39890 120.83410 34065 ft 451 kts 243°
2026-04-28 00:02 29.36831 120.77122 34067 ft 451 kts 243°
2026-04-28 00:02 29.33791 120.70887 34059 ft 450 kts 243°
2026-04-28 00:03 29.30731 120.64619 34065 ft 450 kts 243°
2026-04-28 00:03 29.27669 120.58359 34061 ft 450 kts 243°
2026-04-28 00:04 29.23597 120.50044 34067 ft 449 kts 243°
2026-04-28 00:05 29.20531 120.43802 34069 ft 450 kts 243°
2026-04-28 00:05 29.16963 120.36540 34062 ft 451 kts 242°
2026-04-28 00:06 29.14384 120.31303 34067 ft 451 kts 242°
2026-04-28 00:06 29.11315 120.25077 34067 ft 451 kts 242°
2026-04-28 00:07 29.08227 120.18820 34064 ft 452 kts 242°
2026-04-28 00:07 29.05137 120.12566 34068 ft 451 kts 242°
2026-04-28 00:08 29.02043 120.06323 34076 ft 451 kts 242°
2026-04-28 00:08 28.98940 120.00071 34078 ft 452 kts 242°
2026-04-28 00:09 28.95846 119.93848 34077 ft 453 kts 243°
2026-04-28 00:09 28.92725 119.87571 34077 ft 456 kts 243°
2026-04-28 00:10 28.89583 119.81262 34075 ft 457 kts 243°
2026-04-28 00:10 28.86427 119.74937 34078 ft 459 kts 243°
2026-04-28 00:11 28.83259 119.68598 34069 ft 460 kts 243°
2026-04-28 00:11 28.80106 119.62307 34077 ft 459 kts 243°
2026-04-28 00:12 28.76936 119.55985 34073 ft 459 kts 243°
2026-04-28 00:12 28.73767 119.49675 34069 ft 458 kts 243°
2026-04-28 00:13 28.70597 119.43373 34072 ft 458 kts 243°
2026-04-28 00:13 28.67420 119.37065 34064 ft 458 kts 243°
2026-04-28 00:14 28.64261 119.30800 34072 ft 458 kts 243°
2026-04-28 00:14 28.61082 119.24510 34066 ft 458 kts 243°
2026-04-28 00:15 28.57898 119.18218 34069 ft 458 kts 243°
2026-04-28 00:15 28.54714 119.11937 34066 ft 459 kts 243°
2026-04-28 00:16 28.51524 119.05652 34056 ft 459 kts 243°
2026-04-28 00:16 28.48350 118.99408 34068 ft 459 kts 243°
2026-04-28 00:17 28.45152 118.93128 34052 ft 459 kts 242°
2026-04-28 00:17 28.41947 118.86845 34064 ft 459 kts 242°
2026-04-28 00:18 28.38738 118.80558 34061 ft 460 kts 242°
2026-04-28 00:18 28.35523 118.74268 34049 ft 460 kts 242°
2026-04-28 00:19 28.32302 118.67981 34054 ft 461 kts 242°
2026-04-28 00:19 28.29094 118.61725 34056 ft 461 kts 242°
2026-04-28 00:20 28.25858 118.55425 34046 ft 462 kts 242°
2026-04-28 00:20 28.22621 118.49130 34026 ft 462 kts 242°
2026-04-28 00:21 28.19373 118.42826 34057 ft 463 kts 242°
2026-04-28 00:21 28.16109 118.36501 34043 ft 464 kts 242°
2026-04-28 00:22 28.12841 118.30187 34048 ft 465 kts 242°
2026-04-28 00:22 28.09570 118.23862 34033 ft 465 kts 242°
2026-04-28 00:23 28.06297 118.17542 34030 ft 465 kts 242°
2026-04-28 00:23 28.03038 118.11263 34030 ft 465 kts 242°
2026-04-28 00:24 27.99748 118.04940 34019 ft 466 kts 242°
2026-04-28 00:24 27.96464 117.98630 34030 ft 465 kts 242°
2026-04-28 00:25 27.93175 117.92321 34013 ft 465 kts 242°
2026-04-28 00:25 27.89905 117.86060 34018 ft 465 kts 242°
2026-04-28 00:26 27.86614 117.79767 34016 ft 464 kts 242°
2026-04-28 00:26 27.83325 117.73488 34018 ft 465 kts 242°
2026-04-28 00:27 27.80026 117.67200 34026 ft 465 kts 242°
2026-04-28 00:27 27.76731 117.60922 34013 ft 465 kts 242°
2026-04-28 00:28 27.73441 117.54670 34019 ft 466 kts 242°
2026-04-28 00:28 27.70128 117.48380 34027 ft 466 kts 242°
2026-04-28 00:29 27.66808 117.42085 34019 ft 465 kts 242°
2026-04-28 00:29 27.63495 117.35818 34019 ft 465 kts 242°
2026-04-28 00:30 27.60179 117.29554 34014 ft 464 kts 242°
2026-04-28 00:30 27.56866 117.23301 34027 ft 464 kts 242°
2026-04-28 00:31 27.53553 117.17055 34017 ft 464 kts 242°
2026-04-28 00:31 27.50233 117.10804 34015 ft 465 kts 242°
2026-04-28 00:32 27.46929 117.04593 34015 ft 465 kts 242°
2026-04-28 00:32 27.43593 116.98340 34018 ft 465 kts 242°
2026-04-28 00:33 27.40261 116.92098 34011 ft 465 kts 242°
2026-04-28 00:33 27.36926 116.85855 34012 ft 465 kts 242°
2026-04-28 00:34 27.33586 116.79615 34010 ft 465 kts 242°
2026-04-28 00:34 27.30245 116.73383 34011 ft 465 kts 242°
2026-04-28 00:35 27.26930 116.67202 34009 ft 464 kts 242°
2026-04-28 00:35 27.23588 116.60982 34002 ft 465 kts 242°
2026-04-28 00:36 27.20024 116.54914 33998 ft 467 kts 235°
2026-04-28 00:36 27.15649 116.49474 33981 ft 469 kts 230°
2026-04-28 00:37 27.11176 116.44133 33984 ft 469 kts 230°
2026-04-28 00:37 27.06728 116.38776 33981 ft 469 kts 231°
2026-04-28 00:38 27.02314 116.33439 33984 ft 469 kts 231°
2026-04-28 00:38 26.97863 116.28067 33978 ft 470 kts 231°
2026-04-28 00:39 26.93404 116.22692 33979 ft 471 kts 231°
2026-04-28 00:39 26.88949 116.17309 33966 ft 471 kts 231°
2026-04-28 00:40 26.84512 116.11902 33978 ft 472 kts 231°
2026-04-28 00:40 26.80055 116.06476 33967 ft 473 kts 231°
2026-04-28 00:41 26.75620 116.01087 33975 ft 473 kts 231°
2026-04-28 00:41 26.71160 115.95678 33976 ft 473 kts 231°
2026-04-28 00:42 26.66689 115.90264 33975 ft 473 kts 231°
2026-04-28 00:42 26.62217 115.84854 33977 ft 474 kts 231°
2026-04-28 00:43 26.57745 115.79450 33964 ft 473 kts 231°
2026-04-28 00:43 26.53270 115.74050 33974 ft 473 kts 231°
2026-04-28 00:44 26.48797 115.68659 33978 ft 473 kts 231°
2026-04-28 00:44 26.44314 115.63264 33974 ft 474 kts 231°
2026-04-28 00:45 26.39834 115.57876 33976 ft 473 kts 231°
2026-04-28 00:45 26.35353 115.52498 33970 ft 473 kts 231°
2026-04-28 00:46 26.30896 115.47151 33975 ft 474 kts 231°
2026-04-28 00:46 26.26401 115.41766 33964 ft 474 kts 231°
2026-04-28 00:47 26.21902 115.36386 33960 ft 474 kts 231°
2026-04-28 00:47 26.17409 115.31016 33969 ft 473 kts 231°
2026-04-28 00:48 26.12916 115.25651 33962 ft 473 kts 231°
2026-04-28 00:48 26.08431 115.20306 33963 ft 472 kts 231°
2026-04-28 00:49 26.03946 115.14965 33963 ft 472 kts 231°
2026-04-28 00:49 25.99481 115.09654 33967 ft 471 kts 231°
2026-04-28 00:50 25.95005 115.04337 33964 ft 470 kts 230°
2026-04-28 00:50 25.90526 114.99021 33964 ft 470 kts 230°
2026-04-28 00:51 25.86079 114.93749 33966 ft 471 kts 230°
2026-04-28 00:51 25.81175 114.88913 33957 ft 478 kts 216°
2026-04-28 00:52 25.75042 114.85893 33953 ft 489 kts 198°
2026-04-28 00:52 25.68373 114.84275 33965 ft 492 kts 196°
2026-04-28 00:53 25.61659 114.82710 33968 ft 492 kts 197°
2026-04-28 00:53 25.56089 114.81362 33967 ft 492 kts 197°
2026-04-28 00:54 25.48305 114.79434 33960 ft 493 kts 197°
2026-04-28 00:54 25.41610 114.77769 33962 ft 492 kts 197°
2026-04-28 00:55 25.36055 114.76392 33965 ft 492 kts 197°
2026-04-28 00:55 25.29379 114.74740 33956 ft 491 kts 197°
2026-04-28 00:56 25.22712 114.73094 33966 ft 491 kts 197°
2026-04-28 00:56 25.16046 114.71449 33965 ft 491 kts 197°
2026-04-28 00:57 25.09377 114.69806 33962 ft 491 kts 197°
2026-04-28 00:57 25.02707 114.68162 33957 ft 491 kts 197°
2026-04-28 00:58 24.96085 114.66535 33967 ft 490 kts 197°
2026-04-28 00:58 24.89432 114.64896 33962 ft 489 kts 197°
2026-04-28 00:59 24.82768 114.63270 33974 ft 491 kts 197°
2026-04-28 00:59 24.76075 114.61648 33956 ft 492 kts 197°
2026-04-28 01:00 24.69595 114.59528 33961 ft 485 kts 206°
2026-04-28 01:00 24.63624 114.56207 33971 ft 478 kts 215°
2026-04-28 01:01 24.57872 114.52486 33967 ft 480 kts 214°
2026-04-28 01:01 24.52099 114.48807 33962 ft 480 kts 214°
2026-04-28 01:02 24.46316 114.45154 33968 ft 479 kts 214°
2026-04-28 01:02 24.40531 114.41506 33957 ft 479 kts 214°
2026-04-28 01:03 24.34746 114.37886 33968 ft 478 kts 214°
2026-04-28 01:03 24.28957 114.34276 33971 ft 479 kts 214°
2026-04-28 01:04 24.23168 114.30667 33958 ft 478 kts 214°
2026-04-28 01:04 24.17424 114.27082 33957 ft 478 kts 214°
2026-04-28 01:05 24.11650 114.23485 33965 ft 476 kts 214°
2026-04-28 01:05 24.08973 114.21440 33958 ft 466 kts 227°
2026-04-28 01:05 24.06883 114.18783 33952 ft 457 kts 242°
2026-04-28 01:06 24.04045 114.12599 33964 ft 458 kts 246°
2026-04-28 01:06 24.01097 114.06415 33956 ft 460 kts 245°
2026-04-28 01:06 23.99600 114.03330 33443 ft 460 kts 245°
2026-04-28 01:07 23.98099 114.00232 32705 ft 460 kts 245°
2026-04-28 01:07 23.96607 113.97143 31921 ft 459 kts 245°
2026-04-28 01:07 23.95111 113.94053 31078 ft 461 kts 244°
2026-04-28 01:07 23.93605 113.90950 30275 ft 461 kts 244°
2026-04-28 01:08 23.92107 113.87869 29616 ft 458 kts 244°
2026-04-28 01:08 23.90616 113.84801 28972 ft 456 kts 244°
2026-04-28 01:08 23.89132 113.81751 28296 ft 453 kts 244°
2026-04-28 01:08 23.87655 113.78719 27658 ft 450 kts 244°
2026-04-28 01:09 23.86191 113.75711 27015 ft 447 kts 244°
2026-04-28 01:09 23.84736 113.72723 26385 ft 444 kts 243°
2026-04-28 01:09 23.83286 113.69746 25757 ft 442 kts 243°
2026-04-28 01:09 23.81846 113.66795 25139 ft 439 kts 243°
2026-04-28 01:10 23.80380 113.63888 24514 ft 434 kts 238°
2026-04-28 01:10 23.78423 113.61386 23904 ft 435 kts 221°
2026-04-28 01:10 23.75929 113.59551 23341 ft 431 kts 212°
2026-04-28 01:10 23.73387 113.57909 22770 ft 428 kts 213°
2026-04-28 01:11 23.70843 113.56234 22177 ft 426 kts 213°
2026-04-28 01:11 23.68326 113.54547 21631 ft 423 kts 213°
2026-04-28 01:11 23.65835 113.52857 21057 ft 420 kts 213°
2026-04-28 01:11 23.63365 113.51178 20497 ft 417 kts 213°
2026-04-28 01:12 23.60915 113.49513 19953 ft 414 kts 213°
2026-04-28 01:12 23.58370 113.48054 19387 ft 413 kts 201°
2026-04-28 01:12 23.55603 113.47240 18877 ft 410 kts 194°
2026-04-28 01:12 23.52828 113.46570 18327 ft 408 kts 194°
2026-04-28 01:13 23.50071 113.45892 17799 ft 405 kts 195°
2026-04-28 01:13 23.44621 113.44472 16727 ft 400 kts 195°
2026-04-28 01:13 23.41929 113.43748 16166 ft 398 kts 196°
2026-04-28 01:14 23.39254 113.43024 15640 ft 395 kts 196°
2026-04-28 01:14 23.36593 113.42302 15103 ft 393 kts 196°
2026-04-28 01:14 23.33997 113.41597 14838 ft 383 kts 196°
2026-04-28 01:14 23.31442 113.40907 14672 ft 372 kts 196°
2026-04-28 01:15 23.28961 113.40234 14499 ft 362 kts 196°
2026-04-28 01:15 23.26545 113.39581 14343 ft 353 kts 196°
2026-04-28 01:15 23.24197 113.38946 14197 ft 343 kts 196°
2026-04-28 01:15 23.21908 113.38329 14063 ft 334 kts 196°
2026-04-28 01:16 23.19679 113.37726 13923 ft 326 kts 196°
2026-04-28 01:16 23.17504 113.37139 13789 ft 318 kts 197°
2026-04-28 01:16 23.15384 113.36564 13660 ft 310 kts 197°
2026-04-28 01:16 23.13317 113.36003 13534 ft 303 kts 197°
2026-04-28 01:17 23.11286 113.35454 13300 ft 299 kts 197°
2026-04-28 01:17 23.09270 113.34909 13028 ft 297 kts 196°
2026-04-28 01:17 23.07267 113.34369 12697 ft 294 kts 196°
2026-04-28 01:17 23.05309 113.33843 12547 ft 283 kts 197°
2026-04-28 01:18 23.03434 113.33338 12454 ft 271 kts 197°
2026-04-28 01:18 23.01666 113.32862 12356 ft 259 kts 197°
2026-04-28 01:18 22.99956 113.32403 12200 ft 247 kts 197°
2026-04-28 01:18 22.98315 113.31961 11959 ft 239 kts 197°
2026-04-28 01:19 22.96711 113.31527 11612 ft 236 kts 197°
2026-04-28 01:19 22.95121 113.31097 11194 ft 235 kts 197°
2026-04-28 01:19 22.93542 113.30669 10790 ft 232 kts 199°
2026-04-28 01:19 22.92163 113.29842 10255 ft 229 kts 228°
2026-04-28 01:20 22.91384 113.28343 9754 ft 231 kts 253°
2026-04-28 01:20 22.91237 113.26608 9240 ft 235 kts 277°
2026-04-28 01:20 22.91617 113.24896 8774 ft 237 kts 281°
2026-04-28 01:20 22.92030 113.23168 8441 ft 236 kts 281°
2026-04-28 01:21 22.92478 113.21462 8112 ft 235 kts 292°
2026-04-28 01:21 22.93521 113.20103 7785 ft 240 kts 328°
2026-04-28 01:21 22.95116 113.19595 7520 ft 245 kts
2026-04-28 01:21 22.96797 113.19914 7289 ft 247 kts 14°
2026-04-28 01:22 22.98487 113.20374 6975 ft 253 kts 15°
2026-04-28 01:22 23.00195 113.20849 6660 ft 252 kts 14°
2026-04-28 01:22 23.01879 113.21309 6343 ft 247 kts 14°
2026-04-28 01:22 23.03524 113.21755 6050 ft 241 kts 15°
2026-04-28 01:23 23.05133 113.22193 5764 ft 238 kts 15°
2026-04-28 01:23 23.06726 113.22630 5533 ft 235 kts 15°
2026-04-28 01:23 23.08325 113.23069 5283 ft 238 kts 15°
2026-04-28 01:23 23.09929 113.23506 5070 ft 240 kts 15°
2026-04-28 01:24 23.11569 113.23941 4734 ft 243 kts 15°
2026-04-28 01:24 23.13165 113.24370 4439 ft 237 kts 15°
2026-04-28 01:24 23.14745 113.24795 4155 ft 232 kts 15°
2026-04-28 01:24 23.16300 113.25214 3876 ft 227 kts 15°
2026-04-28 01:25 23.17817 113.25622 3606 ft 221 kts 15°
2026-04-28 01:25 23.19286 113.26017 3369 ft 212 kts 15°
2026-04-28 01:25 23.20681 113.26391 3109 ft 202 kts 15°
2026-04-28 01:25 23.22021 113.26751 2864 ft 193 kts 15°
2026-04-28 01:26 23.23295 113.27095 2624 ft 182 kts 15°
2026-04-28 01:26 23.24474 113.27413 2459 ft 170 kts 15°
2026-04-28 01:26 23.25629 113.27724 2282 ft 171 kts 16°
2026-04-28 01:26 23.26782 113.28034 2065 ft 170 kts 16°
2026-04-28 01:27 23.27918 113.28338 1866 ft 168 kts 16°
2026-04-28 01:27 23.29047 113.28643 1669 ft 167 kts 16°
2026-04-28 01:27 23.30173 113.28947 1434 ft 166 kts 16°
2026-04-28 01:27 23.31286 113.29247 1218 ft 164 kts 15°
2026-04-28 01:28 23.32377 113.29539 1004 ft 163 kts 15°
2026-04-28 01:28 23.33476 113.29838 783 ft 163 kts 16°
2026-04-28 01:28 23.34575 113.30133 577 ft 164 kts 15°
2026-04-28 01:28 23.35676 113.30422 371 ft 162 kts 14°
2026-04-28 01:29 23.36772 113.30721 159 ft 162 kts 15°
2026-04-28 01:29 23.37851 113.31016 58 ft 152 kts 15°
2026-04-28 01:29 23.38722 113.31253 54 ft 104 kts 13°
2026-04-28 01:29 23.39176 113.31370 55 ft 40 kts 14°
2026-04-28 01:30 23.39370 113.31463 55 ft 26 kts 37°
2026-04-28 01:30 23.39509 113.31590 61 ft 26 kts 41°
2026-04-28 01:30 23.39616 113.31683 58 ft 14 kts 27°
2026-04-28 01:30 23.39704 113.31722 54 ft 14 kts 38°
2026-04-28 01:31 23.39711 113.31819 55 ft 14 kts 107°
2026-04-28 01:31 23.39690 113.31920 56 ft 14 kts 102°
2026-04-28 01:31 23.39711 113.32012 63 ft 14 kts 29°
2026-04-28 01:31 23.39802 113.32039 55 ft 14 kts 15°
2026-04-28 01:32 23.39894 113.32065 56 ft 14 kts 15°
2026-04-28 01:32 23.39987 113.32090 55 ft 14 kts 13°
2026-04-28 01:32 23.40080 113.32114 56 ft 14 kts 13°
2026-04-28 01:32 23.40134 113.32133 57 ft 6 kts 37°
2026-04-28 01:33 23.40137 113.32179 56 ft 6 kts 99°
2026-04-28 01:33 23.40129 113.32219 63 ft 0 kts 104°
2026-04-28 01:33 23.40128 113.32222 63 ft 0 kts 104°
2026-04-28 01:33 23.40127 113.32226 55 ft 0 kts 104°
2026-04-28 01:34 23.40127 113.32229 63 ft 0 kts 104°
2026-04-28 01:34 23.40126 113.32231 63 ft 0 kts 104°